Location: Gloden
(48.4833°N, 15.3167°E)
Time: 12:08:28
(UTC+00:00)

CZ-4B R/B - Pass Details

Date: 15 December 2019
Orbit: 809 x 881 km, 99.1° (Epoch: 19 January)

Event Time Altitude Azimuth Distance (km) Brightness Sun altitude
Rises 05:57:18 0° 8° (N) 3,459 6.2 -7.4°
Reaches altitude 10° 05:59:55 10° 358° (N) 2,527 5.4 -7.0°
Maximum altitude 06:04:45 31° 299° (WNW) 1,501 4.0 -6.3°
Drops below altitude 10° 06:09:37 10° 239° (WSW) 2,535 5.4 -5.6°
Sets 06:12:15 0° 229° (SW) 3,472 6.2 -5.2°
